RH
82 80 82 80 83 83 87 84 80 86 91 83 80 72 72 79 86 95 94 69 70 81 87 69 78 80 57 44 41 43 38 38 37 35 28 23 23 22 21 18 18 18 24 42 52
76 75 79 81 82 84 82 86 85 81 84 92 82 77 72 73 80 84 82 81 78 74 84 64 73 73 56 46 40 36 37 29 26 28 27 26 21 24 24 24 22 23 28 62 68
79 80 75 82 82 78 80 84 82 82 82 91 80 84 75 75 67 65 67 84 83 73 70 69 66 67 63 50 40 36 36 29 38 30 29 27 27 26 23 27 19 21 29 49 76
85 84 79 82 82 82 82 81 81 83 84 87 80 83 77 65 80 59 72 88 83 75 65 68 66 77 66 62 42 46 32 33 39 40 39 34 27 29 26 21 23 27 29 29 57
87 88 85 82 83 82 77 79 82 83 84 86 87 89 83 65 63 71 71 68 81 77 63 62 66 72 65 56 51 47 43 37 34 40 41 38 36 29 31 27 26 27 31 28 27
90 89 87 87 87 86 85 84 88 87 86 86 88 80 73 82 54 60 70 67 65 75 64 61 56 53 54 56 53 42 42 40 35 41 40 42 38 39 30 26 26 27 25 24 26
88 89 90 88 92 87 84 84 87 87 86 86 86 81 71 59 63 76 70 66 66 67 60 64 52 53 51 56 47 48 51 40 44 38 36 37 40 44 27 23 25 23 23 25 26
86 89 90 90 86 87 84 83 84 81 85 87 87 83 67 53 56 75 74 64 65 64 62 70 58 47 48 45 50 51 44 53 33 39 41 38 28 32 31 30 29 26 24 26 26
92 94 96 90 85 79 82 87 90 90 89 85 82 67 55 64 75 67 76 63 67 68 74 71 65 52 54 57 59 48 42 41 47 42 34 39 30 26 26 32 30 28 26 26 26
86 89 93 82 85 80 89 80 90 78 86 81 72 70 49 61 63 76 81 72 78 65 82 80 83 73 56 53 52 51 46 46 39 45 48 47 36 37 33 34 33 28 25 24 26
88 94 94 96 83 85 87 77 58 65 70 55 53 60 61 82 80 87 71 89 71 74 93 76 97 81 60 45 40 39 46 40 43 44 44 42 44 39 34 32 31 27 25 24 23
92 94 96 87 82 86 85 66 64 73 64 55 56 57 56 86 91 92 71 95 69 80 76 88 95 52 47 50 50 46 43 43 54 46 45 45 45 36 33 32 32 30 27 26 25
92 93 93 86 82 83 81 82 80 79 68 58 62 62 72 81 73 79 61 92 74 85 86 95 78 54 53 56 55 53 48 53 48 48 44 45 40 37 33 28 30 27 25 23 24
95 95 87 81 77 82 85 85 86 84 81 64 89 86 90 93 72 60 74 88 92 96 86 95 75 59 58 56 47 64 56 54 54 54 49 46 33 38 28 34 32 32 32 33 33
94 84 80 76 84 79 84 68 85 70 87 76 93 83 78 78 69 66 76 90 85 93 94 96 89 85 65 56 49 66 55 52 51 53 55 50 47 34 28 36 35 35 36 38 40
95 72 66 81 88 98 86 73 71 87 90 90 82 94 90 71 68 63 64 68 72 74 73 93 89 86 90 92 61 50 51 52 53 56 71 53 48 28 28 32 36 35 36 38 41
97 78 68 81 83 87 81 75 91 84 76 89 96 95 74 76 67 64 84 78 92 96 100 96 83 86 85 96 76 52 61 85 79 86 60 54 54 29 30 32 37 40 39 39 42
92 67 72 72 76 80 82 84 83 91 99 82 96 80 93 87 75 90 96 71 62 80 100 99 97 82 83 76 75 73 62 68 59 53 43 56 42 30 29 29 30 35 39 40 43
76 62 75 79 79 84 78 94 96 96 98 100 90 90 100 76 80 92 78 68 58 61 76 96 96 56 53 50 52 62 74 49 62 61 59 36 37 33 31 33 33 38 41 43 45
89 78 70 70 83 80 88 98 100 97 92 82 84 67 77 77 85 92 65 58 59 53 48 59 92 62 57 50 50 53 47 69 78 65 49 34 32 25 38 37 33 38 42 42 48
78 65 59 78 75 75 100 100 96 75 80 70 67 69 67 71 71 62 62 58 51 52 46 51 59 80 59 64 61 58 61 59 50 51 34 21 23 25 33 31 35 36 39 42 55
86 91 63 76 88 83 86 85 74 75 73 67 55 59 58 60 60 57 57 54 49 45 50 54 60 80 75 57 54 52 53 46 60 67 66 52 27 31 27 32 35 37 40 46 56
95 79 62 91 95 87 78 82 77 72 64 54 54 52 52 54 60 56 55 56 50 48 49 50 67 85 84 66 61 67 59 52 57 70 80 44 30 34 34 33 32 40 41 52 58
84 89 71 74 78 77 81 81 71 69 62 52 53 48 50 54 53 60 60 61 54 55 59 47 58 62 60 72 69 86 68 57 76 85 54 45 37 36 33 33 37 39 46 59 56
82 89 79 94 78 76 74 73 71 67 62 54 51 50 49 55 58 60 63 61 58 60 53 51 89 72 61 62 78 71 69 67 82 64 76 41 44 30 31 36 38 41 61 63 54
86 94 80 79 74 72 73 72 73 74 77 58 54 60 54 52 48 58 58 56 55 56 53 56 92 81 78 63 68 78 62 64 62 57 58 53 54 34 34 36 43 51 66 62 54
84 88 96 78 73 69 70 67 69 73 76 67 60 58 60 64 63 50 49 46 49 54 57 58 75 77 74 66 66 73 62 60 59 57 55 66 46 37 40 45 51 62 67 59 54
Wind_Speed
20 21 21 20 20 19 18 17 16 16 13 14 13 13 12 13 16 13 12 13 20 10 7 11 14 13 9 8 5 2 9 16 22 20 14 9 12 6 2 8 5 3 3 4 2
21 20 21 21 19 18 18 17 16 16 15 14 13 12 12 11 13 20 13 19 20 19 10 16 17 17 7 9 7 11 14 20 10 10 12 12 12 10 8 9 8 6 2 4 5
21 20 19 19 18 18 16 16 15 15 14 13 13 10 9 9 12 11 18 27 23 20 18 11 17 15 11 9 12 14 16 9 7 8 6 12 10 6 8 10 8 7 1 3 5
21 20 19 18 17 15 14 14 14 13 13 12 12 9 6 4 8 5 8 28 25 21 19 19 18 15 12 13 15 10 15 8 5 5 6 11 8 7 9 3 5 6 3 1 4
23 21 19 17 16 15 14 13 14 13 11 9 8 7 5 7 13 5 9 8 24 26 28 20 21 18 18 17 12 15 5 9 6 7 5 5 7 8 9 6 5 5 4 4 2
23 21 19 18 16 15 14 13 12 11 9 8 7 5 6 13 11 18 12 4 17 31 29 24 18 16 13 11 14 12 7 11 11 7 4 7 7 5 6 7 11 11 12 10 10
24 22 20 19 16 14 14 12 12 12 9 8 8 5 9 16 6 3 18 6 13 31 23 26 16 18 9 9 10 4 13 13 9 9 9 6 14 13 15 14 13 12 10 10 11
26 24 21 18 16 13 13 12 13 14 12 10 7 6 7 10 23 15 7 11 14 29 26 20 21 16 8 5 11 14 7 10 10 16 5 7 14 4 4 10 13 13 13 12 14
29 28 24 17 14 14 13 11 13 15 11 8 5 6 7 4 13 18 13 7 17 27 22 19 13 15 8 14 10 14 10 18 5 9 13 17 8 8 8 5 8 8 9 9 11
30 27 22 16 10 10 10 12 11 2 3 6 2 5 7 8 10 6 11 6 8 22 11 15 8 11 14 15 15 19 15 13 14 7 9 10 14 5 7 7 11 12 12 11 12
33 28 23 12 8 5 6 3 2 3 3 3 2 4 7 13 9 3 3 5 14 19 10 19 6 18 24 19 3 10 16 9 8 5 6 11 10 11 12 13 14 15 15 14 12
32 30 19 4 3 1 3 1 1 3 3 4 8 10 7 1 4 6 8 8 15 21 11 8 13 15 16 13 7 14 14 10 6 5 5 4 8 13 13 12 9 11 11 10 7
30 25 21 11 8 4 4 2 2 1 2 1 0 3 5 3 2 8 4 1 20 14 17 5 7 15 18 16 13 9 12 11 4 6 2 5 6 5 4 6 4 3 2 3 4
28 21 15 5 7 3 3 4 3 2 1 5 2 4 5 11 4 8 5 3 4 9 6 1 3 18 19 18 16 12 5 8 7 5 3 3 3 3 9 9 9 9 9 9 8
23 20 13 12 4 3 3 6 3 2 4 2 2 5 4 1 14 3 1 2 10 11 6 4 6 15 20 20 15 6 9 8 5 3 2 4 4 7 10 8 7 8 7 7 6
18 19 8 7 10 5 3 2 2 3 7 6 4 5 3 3 5 7 5 6 10 9 14 7 4 4 2 7 6 15 10 8 4 1 3 3 4 7 9 10 7 7 6 5 6
17 9 10 5 1 2 5 4 1 6 3 6 5 4 7 4 11 8 4 4 3 5 4 5 4 5 4 9 3 8 12 4 3 4 2 2 4 3 9 10 8 5 5 4 6
15 6 3 2 0 4 4 2 10 4 4 2 2 4 4 6 7 8 3 5 8 8 4 2 4 2 3 2 9 10 3 2 4 4 3 2 5 3 9 7 4 2 2 2 4
12 4 3 2 6 5 3 6 3 2 2 1 3 4 3 7 5 4 2 4 3 3 3 4 4 2 3 4 6 4 4 2 4 2 1 3 3 4 5 9 5 3 1 4 4
8 4 2 5 5 1 1 5 1 3 2 4 2 2 4 5 3 2 1 2 3 0 2 3 6 3 4 1 10 1 8 2 0 4 4 4 3 3 14 13 3 4 5 5 4
3 2 1 8 1 2 3 4 1 3 3 2 2 3 6 4 4 2 2 3 2 2 2 5 3 3 2 1 7 4 3 2 2 1 2 1 3 0 15 12 2 6 6 7 6
4 1 5 3 2 2 2 2 2 2 4 2 2 6 5 3 3 2 3 1 1 2 3 1 4 4 2 2 2 1 2 4 2 4 0 3 3 3 7 4 4 7 5 4 5
4 2 4 2 3 3 1 1 2 3 2 1 2 1 1 3 3 3 3 3 1 1 5 6 4 5 5 3 1 4 4 2 5 2 5 3 4 3 5 3 5 7 7 5 5
2 1 2 2 1 1 2 2 3 1 3 2 2 2 4 3 3 4 4 3 0 2 6 3 2 1 2 3 3 4 8 9 4 3 4 4 0 6 4 5 7 7 6 6 6
3 2 1 2 2 2 1 1 1 2 2 5 2 1 3 3 3 4 2 4 3 2 2 1 3 2 1 3 2 1 5 11 7 4 5 2 6 5 10 8 8 9 4 4 5
3 3 4 3 5 4 3 2 2 1 2 0 2 1 1 2 1 7 6 4 3 3 2 2 3 2 1 1 4 5 8 10 14 14 13 12 17 13 4 4 7 4 4 3 5
5 4 2 3 3 3 1 1 3 3 2 1 5 4 3 1 1 2 1 4 5 7 5 3 5 2 1 0 3 7 15 16 9 9 13 10 8 4 9 7 6 3 1 3 3
Wind_Direction
328 322 316 315 310 306 301 299 298 296 291 273 278 287 306 292 304 290 255 216 222 223 181 186 197 191 179 186 193 199 220 221 215 221 216 181 202 187 164 225 203 189 303 4 339
323 322 322 319 318 312 307 307 303 295 290 276 263 280 298 307 292 278 256 215 220 221 193 179 191 176 181 193 183 204 220 221 227 211 211 184 205 176 182 192 205 192 158 40 138
319 320 321 322 321 316 313 311 302 296 290 285 267 270 297 319 286 246 235 210 214 212 215 198 195 184 181 187 184 207 227 205 202 197 173 180 188 187 200 199 203 198 115 55 146
317 316 320 316 313 312 310 306 301 295 288 276 265 263 282 293 228 162 209 206 201 199 200 192 195 190 188 197 186 210 225 224 167 160 150 175 169 193 220 234 150 130 49 28 183
322 320 315 316 310 305 305 303 302 298 281 276 274 269 269 233 236 227 115 168 205 196 199 189 192 199 195 198 192 216 196 198 199 168 152 149 188 221 233 218 232 254 253 233 232
322 321 312 310 304 300 300 305 304 296 289 279 272 265 224 246 234 233 238 335 199 190 200 193 200 191 204 197 198 200 197 206 211 193 176 198 216 213 225 246 240 240 251 245 253
327 320 315 310 301 297 295 300 293 289 284 283 259 225 232 236 243 58 222 271 192 189 192 196 190 186 163 183 205 141 205 228 201 209 226 215 238 232 247 241 245 233 241 250 252
329 322 316 305 300 299 297 292 291 291 290 270 261 226 252 251 241 284 215 242 203 192 196 186 192 183 189 158 165 190 196 198 213 210 200 198 250 162 223 225 242 248 248 252 261
330 322 311 300 294 300 296 292 289 297 276 256 221 219 256 269 192 238 197 220 173 182 195 186 186 180 155 164 159 186 203 213 179 208 207 211 253 240 211 235 250 248 246 246 260
339 335 325 303 279 294 297 301 300 336 122 171 211 214 236 218 171 175 178 182 162 168 178 197 193 179 175 180 194 189 196 205 210 171 206 213 236 242 220 251 269 271 267 257 253
343 337 327 296 258 283 314 334 209 168 208 240 209 263 41 340 167 108 160 124 164 167 177 192 211 186 187 194 313 170 190 189 206 142 208 230 244 251 259 263 261 264 267 269 269
351 350 339 299 137 196 340 349 40 5 280 246 264 269 281 323 186 154 194 175 174 176 157 166 209 204 182 179 161 175 179 188 123 156 222 199 254 252 259 266 286 280 270 275 285
359 3 29 92 115 67 66 329 122 310 274 6 69 323 315 308 157 164 164 316 154 163 183 222 180 183 179 181 184 184 187 168 157 149 120 282 241 171 103 88 88 61 171 92 70
3 4 13 49 66 65 55 356 240 244 219 41 47 247 235 224 118 149 124 57 93 121 145 316 210 175 183 182 176 171 157 142 133 183 216 304 175 114 135 107 83 83 82 83 72
359 9 24 45 94 41 322 92 136 275 77 39 220 262 316 70 129 163 304 295 95 129 182 201 131 187 184 187 188 122 142 117 111 110 304 180 238 122 161 130 90 74 77 76 55
354 10 20 42 50 30 76 114 274 265 37 353 58 11 10 147 94 155 96 62 114 97 93 57 82 46 83 41 139 135 114 77 72 100 233 159 253 163 171 149 105 83 71 69 40
338 0 25 50 116 60 325 304 261 47 321 6 7 344 100 82 109 107 35 92 114 123 65 89 56 90 103 78 16 141 151 135 177 197 245 124 209 52 145 147 94 62 49 43 24
330 292 346 32 314 305 327 261 52 337 10 344 315 97 63 34 86 76 329 100 62 73 77 85 112 35 297 127 151 154 228 216 181 189 139 151 228 131 140 163 182 354 332 331 12
337 301 260 279 293 298 286 49 51 295 256 5 87 62 82 62 81 86 37 77 100 166 128 138 84 78 96 130 145 171 211 42 104 78 246 185 218 235 196 172 200 14 19 35 18
334 318 273 320 316 204 335 93 51 239 291 246 86 264 113 108 92 103 121 75 105 358 264 129 110 48 155 155 53 213 131 150 336 179 226 184 242 160 167 173 175 13 16 8 354
351 274 358 344 5 30 37 61 315 257 248 326 99 114 107 126 146 95 68 114 139 90 120 122 90 128 174 188 168 148 185 63 93 321 268 188 131 11 166 171 88 346 351 352 351
334 343 339 28 57 50 48 326 316 279 195 253 66 87 141 117 120 111 116 76 122 163 100 53 101 136 92 40 318 290 199 197 218 169 14 332 100 136 168 178 241 325 347 356 3
338 299 316 306 93 81 58 281 271 318 2 34 115 34 150 124 120 114 108 9 113 94 149 168 137 140 159 184 193 219 197 147 94 72 196 223 120 135 160 220 323 328 333 350 351
310 322 357 53 33 51 117 29 344 354 323 2 102 128 129 100 42 140 126 66 36 83 75 97 101 325 133 92 115 190 190 188 169 181 159 233 82 180 207 308 328 331 343 343 356
3 38 21 334 63 7 237 113 347 340 358 350 119 133 147 133 117 133 126 120 71 74 68 67 104 77 62 82 124 229 203 195 206 188 209 115 230 274 302 314 321 319 327 333 347
7 356 347 290 307 269 217 158 169 160 305 49 194 69 349 170 229 182 156 177 172 163 105 30 108 94 100 173 220 250 232 216 222 229 247 260 283 288 315 333 304 301 301 339 353
357 327 294 306 313 260 53 65 140 172 113 344 139 129 104 69 0 25 67 125 147 171 155 127 140 156 171 342 270 262 230 208 205 211 223 223 234 284 301 319 319 320 356 345 331